This is the latest recevied weather packets stored in our database for station/object WI0K. If no packets are shown the sender has not sent any weather packets the latest 10 day(s).
| Time | Temp. | Humidity | Pressure | Rain* | Wind** | Luminosity | Snow |
|---|---|---|---|---|---|---|---|
| 1777521681 | 8.89° C | 59% | 1020.8 hPa | 0 mm | - | 0 W/m² | - |
| 1777521380 | 8.89° C | 60% | 1020.7 hPa | 0 mm | - | 0 W/m² | - |
| 1777521080 | 8.33° C | 60% | 1020.7 hPa | 0 mm | - | 0 W/m² | - |
| 1777520779 | 8.33° C | 63% | 833.4 hPa | 0 mm | - | 0 W/m² | - |
| 1777520478 | 8.33° C | 64% | 833.4 hPa | 0 mm | - | 0 W/m² | - |
| 1777520178 | 8.33° C | 64% | 833.4 hPa | 0 mm | - | 0 W/m² | - |
| 1777519877 | 8.89° C | 64% | 833.4 hPa | 0 mm | - | 0 W/m² | - |
| 1777519576 | 8.89° C | 60% | 1020.8 hPa | 0 mm | - | 0 W/m² | - |
| 1777519276 | 8.89° C | 60% | 833.3 hPa | 0 mm | - | 0 W/m² | - |
| 1777518975 | 9.44° C | 59% | 833.3 hPa | 0 mm | - | 0 W/m² | - |
| 1777518675 | 9.44° C | 60% | 833.2 hPa | 0 mm | - | 0 W/m² | - |
| 1777518374 | 9.44° C | 60% | 833.1 hPa | 0 mm | - | 0 W/m² | - |
| 1777518073 | 10° C | 59% | 833 hPa | 0 mm | - | 0 W/m² | - |
| 1777517773 | 10° C | 57% | 833 hPa | 0 mm | - | 0 W/m² | - |
| 1777517472 | 10° C | 56% | 1020.2 hPa | 0 mm | - | 0 W/m² | - |
| 1777517171 | 10° C | 56% | 1020.2 hPa | 0 mm | - | 0 W/m² | - |
| 1777516871 | 10° C | 56% | 1020.1 hPa | 0 mm | - | 0 W/m² | - |
| 1777516570 | 10° C | 57% | 832.7 hPa | 0 mm | - | 0 W/m² | - |
| 1777516269 | 10° C | 56% | 1019.8 hPa | 0 mm | - | 0 W/m² | - |
| 1777515969 | 10° C | 53% | 1019.8 hPa | 0 mm | - | 0 W/m² | - |
| 1777515668 | 10.56° C | 48% | 1019.7 hPa | 0 mm | - | 0 W/m² | - |
| 1777515367 | 10.56° C | 49% | 832.4 hPa | 0 mm | - | 0 W/m² | - |
| 1777515067 | 10.56° C | 50% | 832.4 hPa | 0 mm | - | 0 W/m² | - |
| 1777514766 | 10.56° C | 53% | 832.2 hPa | 0 mm | - | 0 W/m² | - |
| 1777514465 | 10.56° C | 53% | 832.1 hPa | 0 mm | - | 1 W/m² | - |
* Rain latest hour (hover to see other rain measurements)
** Current wind speed in m/s (hover to see current wind gust speed)